Wetbulb
64.91 72.38 77.46 77.39 76.74 76.74 76.79 76.64 76.42 76.32 76.02 76.39 76.81 76.91 76.98 76.61 76.64 76.69 76.42 75.67 75.29 74.56 73.57 72.31 70.86 69.52 68.52 67.70 67.52 67.26 66.99 66.92 66.98 68.68 72.30 73.18 73.74 73.89 73.53 73.20 72.67 71.60 71.84
66.11 72.96 77.11 77.11 76.84 76.87 76.82 76.62 76.49 76.13 76.11 75.99 76.09 76.33 76.30 76.28 76.28 76.08 75.84 74.92 74.16 73.43 72.38 70.68 69.55 68.93 68.44 67.86 67.28 66.88 66.72 66.56 66.55 66.29 66.73 70.57 72.48 73.08 73.41 73.22 72.64 71.38 71.20
66.55 72.87 75.96 76.86 76.84 76.70 76.52 76.51 76.10 75.97 76.07 75.95 75.63 75.61 75.73 75.61 75.61 75.19 74.96 74.47 73.52 72.51 70.96 70.04 69.58 68.85 68.05 67.68 67.50 67.29 67.05 66.78 66.91 67.07 66.92 62.94 69.65 72.04 72.67 73.20 72.81 72.29 71.76
66.88 72.29 74.81 76.76 76.47 76.64 76.59 76.13 75.85 75.85 75.88 75.95 75.80 75.61 75.56 75.16 74.89 74.62 74.49 73.84 72.60 71.60 70.60 69.96 69.33 68.44 68.14 67.79 67.56 67.10 66.91 66.65 67.31 68.24 64.80 64.77 65.26 71.38 72.25 72.94 73.06 72.61 72.04
67.70 71.66 73.67 76.39 76.39 76.52 76.34 76.03 75.65 75.68 75.65 75.63 75.51 75.53 75.40 75.30 74.98 74.51 74.17 73.74 72.20 71.38 70.63 69.93 69.01 68.74 68.55 68.04 67.77 67.38 67.54 67.67 68.88 67.07 66.51 66.37 65.04 70.70 72.31 73.29 73.08 72.69 71.99
67.77 70.95 73.67 76.14 76.41 76.49 76.44 76.00 75.75 75.76 75.61 75.49 75.71 75.56 75.45 75.18 74.82 74.43 74.19 73.52 72.64 71.38 70.71 69.69 69.20 69.11 68.87 68.19 67.96 67.65 68.43 69.10 69.43 67.82 67.94 66.95 65.40 69.18 72.00 73.10 73.02 72.67 72.28
67.46 69.53 72.62 75.73 76.31 76.51 76.59 76.03 75.93 75.70 75.35 75.26 75.56 75.56 75.53 75.17 74.96 74.47 73.94 73.22 72.75 72.21 70.72 69.87 69.64 70.20 70.01 69.16 68.33 68.56 68.72 69.30 68.25 67.03 66.40 66.09 66.87 70.38 71.88 73.02 72.97 72.87 72.31
66.91 68.24 71.71 75.31 75.86 75.93 76.05 75.87 75.52 75.37 75.25 75.25 75.25 75.28 75.35 75.11 74.91 74.52 74.03 73.20 72.59 72.50 71.86 71.19 70.94 70.72 70.46 70.19 69.71 69.16 68.86 69.22 68.84 67.24 66.06 65.51 66.69 69.92 72.14 72.77 72.63 72.38 72.43
67.04 67.65 70.43 72.55 74.49 75.81 75.67 75.45 75.50 75.27 74.98 74.94 74.94 74.84 75.01 75.23 74.85 74.56 74.00 73.42 72.93 72.43 72.05 71.55 71.49 71.20 70.73 70.46 69.94 69.99 69.45 69.37 68.57 67.46 66.62 66.40 66.52 69.11 71.20 73.06 72.01 72.35 71.76
65.67 67.85 69.14 70.16 71.99 72.85 73.80 75.38 75.31 75.28 75.16 75.10 75.05 74.93 74.85 75.18 75.02 74.55 73.32 73.28 72.97 72.70 72.28 72.01 71.91 71.46 70.92 70.79 70.76 70.42 69.87 69.84 68.45 67.48 67.05 66.62 68.02 69.45 71.05 72.35 72.07 71.47 71.71
65.86 67.02 68.28 69.54 70.17 70.33 70.71 73.47 74.84 75.17 75.18 75.28 75.18 75.06 74.00 73.61 73.60 73.40 73.18 72.82 72.92 72.43 72.16 72.03 72.12 71.79 71.42 70.76 70.47 70.09 69.99 68.44 68.00 67.60 67.11 67.37 68.60 69.75 70.76 72.60 71.07 71.68 71.89
63.76 66.42 67.88 68.78 69.45 69.41 70.52 70.32 71.33 72.08 72.72 73.36 73.47 73.15 73.21 72.44 71.76 71.95 72.68 72.67 72.85 72.38 72.08 72.02 72.21 71.86 70.61 69.01 69.14 69.99 68.93 68.61 68.18 67.96 67.61 68.82 69.21 69.76 71.16 71.95 71.50 70.92 70.94
63.58 65.88 67.63 67.72 68.33 68.83 68.91 68.60 69.95 69.81 69.12 69.52 69.39 69.41 69.91 68.33 69.12 70.58 68.78 70.15 69.44 71.31 68.61 70.41 70.50 70.16 68.41 68.27 67.84 67.71 67.85 67.93 67.74 67.93 68.22 69.47 70.07 70.42 71.09 71.49 71.97 71.67 70.40
64.65 65.36 66.52 67.78 68.05 67.81 67.85 68.29 69.11 68.75 68.28 68.35 67.86 67.43 66.97 65.59 65.21 66.16 66.46 66.51 66.73 67.18 67.18 66.53 67.61 68.28 68.03 67.85 67.67 67.31 67.12 67.09 67.01 67.01 67.63 69.38 70.59 70.95 71.27 71.56 69.74 70.04 71.33
65.15 66.19 66.46 66.72 67.06 67.53 66.62 67.51 67.33 67.57 67.46 67.33 67.03 66.82 66.60 65.00 63.87 64.23 64.91 64.92 64.94 65.76 65.64 65.39 65.75 66.87 67.20 67.38 67.47 67.20 67.14 67.00 66.81 66.58 67.19 68.59 70.36 71.30 71.71 71.67 70.40 69.86 70.15
62.40 66.56 67.14 66.71 66.04 66.03 66.28 65.59 66.13 66.67 65.78 65.57 66.15 66.50 66.27 65.15 63.96 63.71 63.59 63.94 63.76 64.50 64.99 65.04 64.70 65.32 65.84 66.49 66.49 67.18 67.21 66.93 66.79 66.52 67.00 68.41 69.21 70.51 71.21 72.19 71.30 68.49 68.82
60.99 64.67 67.38 67.27 66.15 64.41 64.59 64.03 64.47 65.34 64.93 64.67 65.00 66.17 66.26 65.13 64.24 63.70 63.04 62.74 63.36 63.90 64.44 64.83 64.52 64.64 64.66 65.08 65.69 65.97 66.45 66.37 66.08 66.96 67.72 69.14 68.85 69.35 70.48 72.11 71.04 69.70 69.70
59.74 62.44 67.89 69.14 67.21 65.29 63.82 63.12 64.71 64.95 64.89 64.76 64.72 65.49 66.28 65.93 64.82 63.46 62.66 62.33 62.86 63.31 63.78 63.91 63.67 63.18 63.37 63.48 63.73 64.36 65.62 65.66 66.02 66.82 67.86 68.23 67.91 67.88 68.74 71.39 70.75 70.19 69.84
55.79 57.90 62.04 68.45 68.04 67.12 65.77 64.39 64.14 65.08 65.30 64.95 64.84 65.23 65.68 66.12 65.57 64.23 63.37 63.11 62.58 62.79 63.00 63.32 63.26 63.39 62.12 62.37 63.05 63.97 64.61 65.14 65.69 66.97 67.61 67.53 67.50 68.02 68.07 67.73 70.09 69.76 69.21
54.17 56.04 58.70 66.04 68.29 67.05 66.45 64.96 64.79 65.75 66.15 66.31 66.17 65.94 66.50 66.15 66.03 65.00 64.47 63.80 63.03 62.56 62.62 62.56 63.15 63.30 63.19 62.88 63.03 64.07 64.65 65.01 65.57 66.20 66.89 67.38 67.02 66.74 67.33 67.23 67.48 68.06 69.22
54.34 54.79 55.70 60.53 64.28 66.37 65.29 64.38 64.91 64.89 66.00 66.60 67.15 67.30 67.13 66.84 66.68 65.69 65.13 64.35 63.80 63.05 63.05 63.12 63.07 62.92 62.60 63.20 63.21 62.90 63.26 64.06 64.63 65.57 66.06 65.57 65.46 66.06 66.42 66.53 67.03 67.25 67.79
48.97 51.25 53.68 55.40 59.16 64.70 66.94 66.92 66.76 66.64 67.10 67.64 67.99 67.62 67.74 67.57 67.33 66.24 65.62 64.93 64.51 63.58 62.92 63.21 63.51 62.13 62.91 62.90 62.23 60.63 59.82 61.96 62.43 62.55 63.98 64.09 64.35 65.13 65.55 66.11 66.15 65.93 66.44
47.18 48.09 52.04 54.02 55.87 60.16 65.77 64.93 64.16 64.80 64.76 64.75 65.44 67.00 67.85 68.08 68.18 67.53 66.18 65.95 65.03 65.20 63.14 63.40 63.67 63.29 61.96 62.20 63.39 62.75 59.29 58.74 59.84 61.30 62.07 62.73 63.55 63.75 64.52 65.06 65.44 65.82 65.86
49.71 48.83 48.35 52.65 54.90 57.39 62.27 64.85 65.25 65.83 65.48 66.11 65.48 66.93 66.28 67.98 68.42 68.25 66.82 66.51 66.49 66.13 65.08 64.03 64.31 64.40 64.36 62.38 63.13 63.38 62.45 61.72 59.37 58.28 60.87 61.02 61.68 62.73 63.25 64.03 64.88 64.91 65.62
50.82 50.41 49.06 48.91 54.28 56.99 59.41 65.38 65.35 65.17 66.43 65.69 63.86 64.39 64.95 65.58 67.53 68.33 67.54 66.94 66.62 66.78 66.85 65.93 64.49 64.41 64.60 63.77 63.55 61.69 61.70 60.95 59.80 59.39 58.88 60.03 61.26 61.54 63.11 63.42 64.03 64.34 64.80
49.90 50.50 51.15 49.91 48.69 55.89 58.92 63.68 65.56 65.44 64.86 62.13 62.95 63.50 64.20 65.43 67.00 68.48 68.39 67.92 67.79 67.23 66.60 66.31 66.22 65.60 64.38 64.37 62.94 63.18 62.99 61.14 59.98 59.77 58.43 58.92 58.40 60.67 61.64 62.92 63.06 63.55 64.52
MSLP
1005.84 1006.11 1006.64 1007.20 1007.39 1007.70 1008.02 1008.35 1008.65 1009.01 1009.40 1009.71 1009.96 1010.34 1010.71 1011.13 1011.51 1011.82 1012.03 1012.44 1012.76 1013.04 1013.27 1013.49 1013.75 1013.90 1014.02 1014.27 1014.44 1014.57 1014.73 1014.69 1014.63 1014.61 1014.70 1014.70 1014.71 1014.85 1014.92 1014.93 1014.95 1015.03 1015.14
1004.41 1005.51 1005.89 1006.57 1007.10 1007.58 1007.83 1008.29 1008.67 1009.10 1009.47 1009.82 1010.12 1010.42 1010.70 1011.14 1011.58 1012.01 1012.23 1012.46 1012.83 1013.13 1013.30 1013.63 1013.85 1014.03 1014.20 1014.49 1014.66 1014.90 1015.11 1015.07 1015.02 1014.91 1014.91 1014.96 1014.90 1014.96 1015.05 1015.10 1015.11 1015.11 1015.17
1004.43 1005.24 1005.87 1006.48 1006.53 1007.36 1007.79 1008.26 1008.66 1009.11 1009.57 1009.96 1010.22 1010.55 1010.77 1011.06 1011.28 1011.84 1012.22 1012.55 1012.69 1013.08 1013.37 1013.56 1013.78 1014.04 1014.26 1014.29 1014.51 1014.70 1014.99 1015.23 1015.33 1015.16 1015.08 1015.26 1015.21 1015.11 1015.10 1015.11 1015.18 1015.16 1015.22
1003.94 1005.30 1006.01 1006.32 1006.44 1006.85 1007.49 1007.97 1008.42 1008.86 1009.27 1009.85 1010.15 1010.71 1010.97 1011.25 1011.52 1011.81 1012.20 1012.54 1012.94 1013.15 1013.37 1013.57 1013.85 1014.05 1014.32 1014.50 1014.61 1014.78 1015.08 1015.16 1015.20 1015.20 1015.38 1015.41 1015.44 1015.27 1015.21 1015.11 1015.17 1015.20 1015.35
1003.94 1005.09 1006.10 1006.48 1006.15 1006.61 1007.29 1007.80 1008.30 1008.59 1008.99 1009.46 1009.90 1010.48 1010.77 1011.16 1011.41 1011.84 1012.22 1012.37 1012.69 1013.04 1013.33 1013.54 1013.76 1014.07 1014.24 1014.44 1014.56 1014.77 1015.01 1015.01 1015.01 1015.30 1015.41 1015.34 1015.35 1015.31 1015.26 1015.18 1015.16 1015.13 1015.28
1004.03 1004.73 1005.60 1006.42 1006.60 1006.41 1007.06 1007.64 1008.27 1008.56 1008.86 1009.30 1009.67 1010.21 1010.64 1011.12 1011.33 1011.77 1012.18 1012.48 1012.71 1012.95 1013.12 1013.42 1013.76 1013.94 1014.10 1014.45 1014.55 1014.80 1014.95 1014.90 1014.97 1015.35 1015.41 1015.23 1015.23 1015.22 1015.19 1015.36 1015.45 1015.33 1015.27
1004.20 1004.91 1005.56 1005.99 1006.50 1006.60 1007.22 1007.87 1008.34 1008.60 1008.86 1009.18 1009.64 1010.13 1010.45 1010.86 1011.24 1011.62 1011.97 1012.35 1012.63 1012.88 1012.95 1013.20 1013.53 1013.98 1014.16 1014.42 1014.73 1014.93 1014.90 1014.83 1014.95 1015.28 1015.44 1015.28 1015.20 1015.22 1015.23 1015.31 1015.34 1015.33 1015.34
1003.67 1004.99 1005.90 1006.41 1006.53 1006.78 1007.35 1007.95 1008.35 1008.67 1008.91 1009.05 1009.35 1009.81 1010.17 1010.49 1010.90 1011.33 1011.74 1012.16 1012.46 1012.73 1012.87 1013.08 1013.38 1013.80 1014.10 1014.35 1014.63 1014.80 1014.87 1014.79 1014.95 1015.20 1015.25 1015.26 1015.16 1015.14 1015.20 1015.29 1015.35 1015.32 1015.33
1004.66 1005.25 1006.05 1006.62 1007.09 1006.77 1007.24 1007.71 1008.25 1008.71 1009.08 1008.97 1009.30 1009.60 1009.93 1010.20 1010.69 1011.07 1011.51 1011.98 1012.21 1012.53 1012.73 1012.89 1013.18 1013.57 1013.94 1014.26 1014.55 1014.73 1014.74 1014.75 1014.99 1015.14 1015.13 1015.03 1015.05 1015.03 1015.05 1015.23 1015.33 1015.21 1015.22
1005.12 1005.54 1006.00 1006.42 1006.79 1007.02 1007.28 1007.68 1008.18 1008.72 1009.16 1009.18 1009.31 1009.63 1009.83 1010.10 1010.50 1010.88 1011.20 1011.66 1011.98 1012.27 1012.46 1012.68 1012.97 1013.37 1013.69 1014.11 1014.35 1014.61 1014.61 1014.68 1014.90 1015.05 1014.97 1014.88 1014.88 1014.75 1014.81 1015.09 1015.14 1015.22 1015.27
1005.54 1005.91 1006.36 1006.56 1006.83 1006.95 1007.23 1007.62 1008.12 1008.69 1009.12 1009.43 1009.48 1009.83 1010.15 1010.38 1010.54 1010.64 1010.96 1011.37 1011.70 1012.05 1012.18 1012.40 1012.62 1012.88 1013.32 1013.67 1014.16 1014.24 1014.37 1014.58 1014.74 1014.92 1014.80 1014.74 1014.70 1014.55 1014.66 1014.99 1015.25 1015.33 1015.34
1006.44 1006.62 1006.60 1006.83 1006.88 1006.91 1007.21 1007.62 1007.98 1008.40 1008.87 1009.23 1009.38 1009.66 1010.30 1010.48 1010.61 1010.67 1010.99 1011.44 1011.58 1011.91 1012.21 1012.28 1012.52 1012.77 1012.96 1013.44 1013.78 1013.87 1014.08 1014.31 1014.51 1014.73 1014.60 1014.53 1014.54 1014.43 1014.35 1014.81 1014.98 1015.23 1015.19
1006.38 1006.61 1007.13 1007.27 1006.90 1006.98 1007.03 1007.48 1007.92 1008.29 1008.71 1009.11 1009.41 1009.50 1009.99 1010.40 1010.76 1011.02 1011.02 1011.26 1011.65 1011.80 1012.17 1012.32 1012.50 1012.82 1012.95 1013.24 1013.77 1013.86 1013.89 1014.10 1014.20 1014.37 1014.32 1014.25 1014.19 1014.19 1014.20 1014.43 1014.63 1014.72 1015.14
1005.96 1006.12 1006.56 1007.05 1007.35 1006.94 1006.89 1007.22 1007.66 1008.07 1008.25 1008.65 1008.73 1009.15 1009.61 1010.13 1010.59 1011.11 1011.35 1011.24 1011.48 1011.78 1012.06 1012.37 1012.53 1012.68 1012.93 1013.08 1013.12 1013.60 1013.61 1013.88 1013.92 1014.13 1014.11 1013.95 1013.87 1013.95 1013.90 1013.84 1014.12 1014.22 1014.54
1004.63 1005.28 1005.82 1006.68 1007.00 1007.20 1006.99 1007.05 1007.29 1007.56 1007.82 1007.99 1008.29 1008.76 1009.14 1009.75 1010.15 1010.51 1011.20 1011.14 1011.18 1011.49 1011.90 1012.32 1012.54 1012.84 1012.98 1013.08 1013.02 1013.12 1013.16 1013.50 1013.46 1013.62 1013.56 1013.62 1013.49 1013.56 1013.37 1013.28 1013.56 1014.19 1014.73
1004.45 1004.54 1004.34 1004.95 1006.13 1006.71 1006.84 1006.92 1006.79 1007.26 1007.43 1007.79 1008.10 1008.33 1008.54 1008.98 1009.64 1009.91 1010.69 1010.98 1010.98 1011.21 1011.42 1011.67 1012.10 1012.44 1012.63 1012.92 1013.00 1012.73 1012.78 1013.00 1013.13 1013.27 1013.04 1013.13 1013.09 1013.06 1012.80 1012.66 1013.28 1014.01 1014.41
1004.13 1003.83 1004.01 1004.01 1004.62 1005.13 1005.90 1006.30 1006.49 1006.74 1007.32 1007.63 1007.95 1008.36 1008.24 1008.46 1009.06 1009.34 1009.94 1010.53 1010.30 1010.61 1011.04 1011.30 1011.85 1012.18 1012.43 1012.72 1012.67 1012.51 1012.68 1012.75 1012.76 1012.93 1012.68 1012.61 1012.54 1012.65 1012.40 1012.12 1012.72 1013.30 1013.97
1004.05 1004.16 1003.53 1003.34 1004.08 1004.74 1004.56 1005.41 1006.28 1006.56 1006.78 1007.03 1007.41 1007.21 1007.87 1007.94 1008.37 1008.88 1009.18 1009.73 1009.82 1010.42 1010.62 1010.94 1011.62 1012.15 1012.45 1012.52 1012.28 1012.00 1012.36 1012.55 1012.55 1012.55 1012.42 1012.22 1012.26 1012.12 1011.93 1011.72 1012.12 1012.67 1013.25
1004.08 1003.71 1002.81 1003.23 1003.30 1003.80 1004.43 1004.46 1005.27 1006.19 1006.49 1006.51 1007.16 1007.19 1007.16 1007.45 1007.74 1008.27 1008.59 1008.98 1009.46 1009.99 1010.20 1010.40 1011.17 1011.63 1012.08 1012.15 1011.95 1011.78 1012.07 1012.18 1012.32 1012.19 1012.03 1011.85 1011.90 1011.96 1011.83 1011.78 1011.80 1012.03 1012.60
1003.96 1003.55 1003.73 1003.98 1003.59 1003.29 1003.91 1004.56 1004.77 1005.33 1005.68 1006.03 1006.26 1006.03 1006.18 1006.62 1006.91 1007.68 1008.10 1008.46 1009.19 1009.60 1009.90 1010.11 1010.56 1011.19 1011.57 1011.59 1011.65 1011.47 1011.80 1011.73 1011.85 1011.78 1011.62 1011.53 1011.67 1011.70 1011.71 1011.70 1011.80 1011.88 1012.00
1004.26 1003.94 1003.58 1003.28 1003.42 1004.03 1003.77 1004.05 1004.51 1004.81 1004.80 1005.45 1005.10 1005.13 1005.71 1005.83 1006.33 1007.14 1007.57 1007.94 1008.52 1008.84 1009.13 1009.63 1010.12 1010.77 1011.33 1011.44 1011.59 1011.56 1011.62 1011.40 1011.51 1011.29 1011.37 1011.49 1011.69 1011.63 1011.62 1011.55 1011.53 1011.60 1011.76
1005.02 1004.33 1004.02 1003.28 1002.93 1003.18 1003.03 1003.06 1002.99 1003.46 1003.82 1004.13 1004.39 1004.70 1004.87 1005.23 1005.87 1006.48 1006.81 1007.40 1007.75 1008.34 1008.70 1009.03 1009.65 1010.26 1010.55 1011.08 1011.11 1011.66 1011.76 1011.39 1011.35 1011.24 1011.29 1011.50 1011.55 1011.49 1011.43 1011.31 1011.38 1011.31 1011.47
1005.03 1004.72 1004.20 1003.17 1002.53 1002.73 1002.48 1002.86 1003.23 1003.13 1003.14 1003.66 1003.89 1003.99 1004.05 1004.26 1005.09 1005.77 1006.19 1006.59 1006.85 1007.31 1007.72 1008.22 1009.11 1009.44 1009.61 1010.62 1010.32 1010.90 1011.37 1011.36 1011.44 1011.23 1011.26 1011.49 1011.43 1011.38 1011.17 1011.10 1011.22 1011.19 1011.37
1004.63 1004.08 1003.93 1003.13 1002.27 1001.97 1002.00 1002.37 1002.64 1002.53 1002.13 1002.04 1002.63 1002.69 1003.42 1003.76 1004.39 1004.92 1005.48 1006.02 1006.27 1006.44 1007.02 1007.59 1008.23 1008.61 1008.94 1009.85 1010.49 1010.53 1010.68 1010.96 1011.36 1011.51 1011.58 1011.47 1011.56 1011.38 1011.18 1011.10 1011.09 1011.03 1011.22
1004.95 1004.71 1003.68 1002.85 1002.11 1001.51 1001.44 1001.58 1001.77 1001.75 1001.41 1001.07 1001.58 1002.27 1002.99 1003.04 1003.41 1004.02 1004.70 1005.29 1005.41 1005.75 1006.00 1007.01 1007.80 1007.94 1008.42 1009.17 1009.50 1010.26 1010.69 1011.12 1011.20 1011.41 1011.56 1011.54 1011.43 1011.22 1011.07 1011.09 1011.00 1010.94 1010.97
1003.99 1003.84 1003.43 1002.46 1001.57 1001.39 1000.86 1000.95 1000.84 1001.01 1001.01 1001.07 1001.05 1001.70 1002.34 1002.73 1003.21 1003.75 1004.07 1004.46 1004.74 1005.06 1005.51 1006.13 1006.71 1007.05 1007.93 1008.59 1008.99 1009.26 1009.69 1010.41 1010.98 1011.17 1011.39 1011.45 1011.53 1011.14 1011.07 1010.99 1010.89 1010.84 1010.93
Wind_Speed
8 16 21 21 22 22 21 19 18 17 17 17 18 19 18 18 17 16 16 15 13 13 12 11 10 9 8 7 7 7 7 7 6 7 7 7 6 7 8 9 9 7 7
14 17 24 23 23 23 23 21 20 18 17 17 18 18 18 17 16 14 14 14 13 13 12 11 10 9 8 7 7 6 6 6 5 5 5 4 5 5 6 8 9 7 8
16 16 19 22 24 23 22 22 21 20 19 18 17 17 17 17 17 16 14 14 14 13 11 11 10 9 8 8 7 7 6 5 4 4 3 1 0 3 5 8 8 9 9
19 15 15 22 23 23 22 23 22 22 21 20 19 18 17 17 16 17 15 14 13 13 12 11 10 9 8 7 7 7 5 4 3 5 3 1 3 3 4 8 9 9 9
18 15 13 20 23 23 22 21 22 23 23 22 21 19 18 17 17 16 15 14 15 14 13 12 11 9 8 7 6 6 6 4 5 5 3 3 2 3 4 8 10 10 9
16 15 17 21 21 23 22 21 20 22 22 22 21 20 18 17 16 15 14 14 14 14 14 12 11 10 9 6 5 5 5 5 5 3 3 4 3 5 6 8 9 8 8
15 12 14 22 21 21 20 19 19 20 21 21 21 20 19 18 17 16 15 15 14 13 14 13 12 9 8 7 5 4 4 5 3 1 3 4 3 7 7 9 10 10 9
18 13 10 17 19 20 20 18 18 19 20 21 21 21 20 19 18 17 15 15 14 13 12 12 11 10 8 7 6 4 2 3 3 0 3 2 3 8 9 8 9 10 9
10 10 8 9 12 18 19 18 17 17 18 20 20 20 20 19 17 16 15 14 14 13 12 12 12 11 9 8 7 5 4 2 2 1 3 2 5 9 12 10 9 9 9
6 7 9 8 9 9 11 16 15 14 14 16 17 17 17 17 16 16 15 14 14 13 13 13 13 12 10 9 8 7 6 5 1 3 3 3 7 8 13 11 11 9 11
5 5 5 8 7 8 7 10 13 15 14 13 13 14 11 6 9 13 13 15 14 14 14 14 13 13 11 11 10 9 8 2 3 3 3 6 7 7 11 13 11 10 10
1 2 4 6 8 8 7 6 6 7 6 6 6 7 6 8 6 7 9 14 14 13 12 13 12 13 12 4 4 9 3 4 3 4 4 7 8 8 12 12 12 12 10
4 2 4 4 5 9 8 5 4 4 4 4 5 5 5 3 3 2 2 3 3 9 3 6 6 4 5 4 4 4 4 4 3 4 6 9 10 12 13 14 12 12 14
5 7 6 6 5 6 5 6 7 6 6 6 7 7 5 3 4 3 2 4 4 3 4 4 2 3 4 5 6 6 5 5 3 4 6 12 12 13 14 14 6 14 14
11 10 10 7 8 7 7 6 6 8 8 8 6 7 6 5 5 5 4 3 4 3 4 3 3 4 5 6 6 7 6 7 6 5 4 12 12 12 15 15 16 14 14
6 12 14 17 12 7 9 7 7 5 5 4 5 7 9 7 6 6 5 5 4 4 4 5 5 5 5 5 7 7 7 7 7 7 5 5 12 14 16 14 14 7 9
7 7 12 14 14 16 12 7 5 6 5 5 4 6 9 9 8 8 6 6 6 5 5 4 4 3 4 5 8 5 5 7 7 8 6 4 6 12 16 14 16 12 14
8 7 7 10 13 13 14 8 5 5 6 6 6 8 11 10 10 8 6 7 5 5 5 5 4 4 5 5 5 4 4 5 7 7 6 5 5 6 7 11 16 15 17
8 9 7 6 13 15 13 10 9 7 6 6 5 7 10 10 11 8 7 6 6 5 5 6 4 5 4 5 6 3 4 4 6 5 8 6 6 6 4 7 10 14 17
10 9 6 7 9 10 6 4 4 5 5 6 9 9 12 10 11 9 6 7 6 5 5 5 5 4 3 4 3 2 3 4 5 6 6 5 5 6 6 7 5 6 14
8 9 11 4 7 4 4 5 4 8 8 8 10 12 11 9 10 10 6 7 8 8 7 7 4 5 5 2 2 1 3 4 6 5 4 4 5 5 6 6 5 4 5
7 10 10 9 5 7 6 5 5 7 7 8 6 7 10 10 11 10 9 9 9 6 7 8 7 3 3 5 3 2 3 1 1 2 2 4 6 4 5 6 7 7 5
9 8 10 10 9 6 8 2 1 2 3 3 4 5 11 12 11 11 10 8 9 8 7 9 10 8 5 3 4 3 1 3 1 2 2 2 3 2 4 5 6 6 4
8 9 9 10 10 9 7 7 11 11 11 9 5 6 5 10 10 11 10 10 9 7 7 9 8 7 5 5 2 3 0 2 3 1 1 2 2 3 4 4 4 4 4
7 8 10 9 10 10 8 10 10 12 11 6 4 7 7 7 9 10 10 10 9 7 8 9 9 7 5 4 3 3 1 0 2 2 2 2 1 1 2 3 2 2 3
10 10 9 10 9 10 10 12 15 16 13 6 6 6 5 4 4 7 9 8 8 8 9 9 9 9 8 4 3 4 4 4 3 3 2 3 2 2 1 2 2 2 2
Wind_Direction
182 165 171 168 154 148 145 144 141 135 131 129 128 129 129 134 137 140 141 142 144 148 144 136 130 124 119 111 102 95 92 91 92 96 96 97 116 133 131 127 130 139 148
141 166 169 169 155 153 149 149 146 143 138 134 132 132 132 136 139 142 146 150 152 153 147 141 135 130 126 116 102 92 85 83 85 86 94 106 123 135 158 148 151 158 154
151 164 168 171 157 156 153 152 150 148 144 142 139 141 143 147 147 152 156 159 157 156 151 146 144 140 136 129 122 107 92 77 71 78 82 95 60 150 159 164 170 170 162
151 162 170 172 160 158 158 157 155 152 150 150 147 152 153 155 156 159 163 161 160 160 159 152 147 146 144 135 123 107 101 92 74 56 43 344 269 186 180 180 182 185 178
151 158 171 175 164 161 162 161 160 156 155 155 154 160 161 164 161 164 167 165 167 167 162 159 156 154 152 150 132 128 125 104 69 51 27 339 217 228 194 184 191 192 187
150 159 171 178 174 162 166 165 166 161 158 159 159 164 166 169 167 170 171 171 172 172 167 164 164 165 161 158 156 155 131 102 72 31 341 347 195 240 207 208 205 206 193
154 162 174 176 178 164 165 169 169 168 165 164 165 170 171 172 173 174 175 177 178 178 171 169 169 171 169 166 182 183 140 104 97 21 326 352 239 242 228 224 211 219 224
154 155 175 184 175 164 166 172 176 175 174 170 171 176 176 176 178 178 178 181 183 181 175 172 171 176 173 167 192 206 181 121 112 311 316 319 311 249 242 236 229 219 221
141 141 158 174 187 167 171 173 178 181 186 177 179 181 180 180 182 179 180 185 186 184 180 176 176 181 179 181 196 218 227 208 166 223 266 280 293 259 244 244 250 234 213
112 143 164 170 176 174 170 174 178 187 194 189 184 188 187 185 183 182 185 190 189 188 183 182 182 184 184 188 197 214 230 239 228 250 260 266 286 269 239 248 243 244 222
131 155 170 173 173 164 153 175 180 192 199 201 194 197 195 193 192 190 190 192 194 196 190 189 187 186 188 192 206 215 230 199 224 247 257 270 280 264 236 244 256 253 241
243 289 196 182 177 158 167 168 166 183 190 193 192 188 200 204 204 186 192 203 202 202 200 196 195 191 195 178 209 225 212 211 220 251 255 261 265 249 236 246 257 263 257
236 210 231 239 185 178 170 162 171 181 171 186 188 167 175 173 197 207 169 189 192 209 197 203 196 197 184 177 208 224 230 234 223 252 262 260 253 247 247 246 247 251 257
195 196 210 213 225 199 170 177 184 187 189 197 193 180 177 174 173 187 214 196 186 192 192 196 184 185 197 202 197 224 230 245 232 248 255 261 259 259 260 257 214 258 249
180 195 192 192 225 218 203 186 190 200 200 205 185 186 178 180 183 163 211 209 202 171 191 189 181 197 209 215 217 216 232 247 244 245 245 257 262 267 257 253 211 234 285
250 213 192 189 196 205 211 212 199 204 200 187 194 198 188 183 185 179 190 215 210 190 190 182 184 197 211 207 227 214 232 243 248 245 247 246 259 252 262 239 210 227 279
255 222 199 199 197 187 204 207 192 188 188 194 187 203 196 185 192 183 187 211 213 192 184 172 182 190 212 212 233 212 228 246 249 244 244 233 260 260 259 235 206 210 217
294 269 225 188 192 208 197 187 205 205 200 205 217 198 198 194 190 189 186 212 191 184 185 169 167 199 224 212 225 217 222 236 252 247 247 239 241 264 259 242 214 216 202
296 286 298 262 197 201 208 194 193 195 202 205 208 198 197 201 191 190 193 200 170 187 188 167 180 188 204 221 231 214 228 235 252 255 248 240 245 249 260 259 254 233 215
317 314 283 215 237 197 186 191 179 186 207 202 211 208 196 198 188 191 189 183 173 180 180 169 184 181 209 220 222 235 251 236 238 245 254 252 248 245 254 264 257 254 236
311 320 313 266 233 203 180 170 189 213 219 222 216 213 201 185 186 188 191 179 185 190 189 180 158 172 216 171 102 341 276 245 237 234 243 256 262 260 254 251 252 245 232
296 299 300 298 251 216 206 222 193 188 215 230 221 200 186 186 186 187 187 191 186 181 171 170 177 168 181 183 140 106 280 317 263 235 255 258 260 258 251 247 247 245 231
303 284 277 282 281 233 217 133 73 96 117 144 208 200 206 191 178 192 192 184 180 181 180 179 190 181 160 187 185 154 175 230 316 2 346 284 270 258 266 265 247 242 231
292 298 272 272 274 274 226 203 214 224 217 212 206 212 187 173 185 189 186 190 185 177 174 186 187 190 135 163 157 216 159 144 181 324 275 255 268 233 238 249 249 238 232
285 274 287 266 263 264 254 225 224 233 232 218 157 156 183 186 186 188 185 187 181 179 177 178 172 166 167 152 155 147 125 110 64 134 237 278 289 267 253 251 249 256 244
300 290 277 279 259 254 247 236 231 233 227 202 166 175 182 164 164 188 188 188 186 180 174 178 175 166 176 160 152 160 158 161 185 164 208 239 252 296 295 246 234 225 214